Flag for Canada Weather past 2 weeks in Thunder Bay, Ontario, Canada

Now
73 °F

Broken clouds.


Feels Like: 77 °F
Forecast: 57 / 74 °F
Wind: 10 mph from Northwest

Location: Thunder Bay

Current Time: Aug 2, 2015 at 3:05:20 PM

Latest Report: Aug 2, 2015 at 2:00 PM


Visibility: 20 mi

Pressure: 29.57 "Hg

Humidity: 50%

Dew point: 54 °F

Location of Thunder BayLocation

Historic Weather in Thunder Bay — Graph

°F

Thunder Bay temperature yesterday

Maximum temperature yesterday: 79 °F (at 4:00 PM)
Minimum temperature yesterday: 55 °F (at 6:00 AM)
Average temperature yesterday: 67 °F

Past Weeks' High & Low Weather Summary

 TemperatureHumidityPressure
High90 °F (Jul 27, 5:00 PM)100% (Jul 18, 2:00 PM)29.98 "Hg (Jul 18, 2:00 PM)
Low48 °F (Jul 22, 5:00 AM)36% (Jul 20, 5:00 PM)29.51 "Hg (Jul 20, 12:00 AM)
Average68 °F74%29.79 "Hg
* Reported Jul 18 2:00 PM — Aug 2 2:00 PM, Thunder Bay, Weather by CustomWeather, © 2015

Note: Actual official high and low records may vary slightly from our data, if they occured in-between our weather recording intervals... More about our weather records

Advertising

Thunder Bay weather history for previous 24 hours

 ConditionsComfort  
Time TempWeatherWind HumidityBarometerVisibility
2:00 PM
Sun, Aug 2
73 °FBroken clouds.10 mph50%29.57 "Hg20 mi
1:00 PM73 °FPartly sunny.13 mph53%29.56 "Hg20 mi
12:00 PM70 °FPartly sunny.10 mph64%29.56 "Hg20 mi
11:00 AM68 °FBroken clouds.12 mph78%29.58 "Hg20 mi
10:00 AM66 °FBroken clouds.9 mph88%29.58 "Hg20 mi
9:00 AM63 °FBroken clouds.7 mph94%29.59 "Hg20 mi
8:00 AM61 °FPartly sunny.6 mph94%29.59 "Hg20 mi
7:48 AM59 °FPartly sunny.6 mph100%29.59 "Hg20 mi
7:00 AM61 °FSprinkles. Passing clouds.5 mph94%29.61 "Hg12 mi
6:00 AM59 °FSprinkles. Partly cloudy.6 mph100%29.61 "Hg15 mi
5:00 AM61 °FThunderstorms. Fog.7 mph94%29.65 "Hg6 mi
4:00 AM61 °FMostly cloudy.7 mph94%29.62 "Hg15 mi
3:02 AM61 °FSprinkles. Mostly cloudy.No wind94%29.65 "Hg15 mi
2:00 AM61 °FOvercast.2 mph88%29.63 "Hg15 mi
1:00 AM61 °FMostly cloudy.5 mph88%29.65 "Hg15 mi
12:00 AM63 °FPartly cloudy.3 mph83%29.65 "Hg15 mi
11:00 PM
Sat, Aug 1
64 °FPartly cloudy.2 mph78%29.67 "Hg15 mi
10:00 PM66 °FPartly sunny.2 mph73%29.67 "Hg20 mi
9:00 PM72 °FPartly sunny.5 mph53%29.68 "Hg20 mi
8:00 PM73 °FPartly sunny.6 mph53%29.69 "Hg20 mi
7:00 PM75 °FPartly sunny.8 mph47%29.70 "Hg20 mi
6:00 PM79 °FPartly sunny.12 mph39%29.71 "Hg20 mi
5:00 PM77 °FBroken clouds.13 mph42%29.72 "Hg20 mi
4:00 PM79 °FPartly sunny.17 mph37%29.74 "Hg20 mi
3:00 PM77 °FPartly sunny.16 mph44%29.76 "Hg20 mi
Weather by CustomWeather, © 2015

See weather overviewHow to use our weather pages